When you browse on this site, cookies collect data to enhance your experience and personalize the content and advertising you see.
Visit our Privacy Policy to learn more. By continuing to use the site, you agree to this use of cookies and data.
  • In Romania
  • List of Countries
  • For 7 days
  • Water Temperature
  • Weather Map
  • Weather Widgets
  • user-avatar
    Login

    Hourly Weather Saint-Herblain

    Today, 22 August, Thursday

    Time Temperature Precipitation Wind Pressure Humidity
    00:00 +16°C° 0 mm 2 mps 765 mmHg 70%
    01:00 +15°C° 0 mm 2 mps 765 mmHg 72%
    02:00 +15°C° 0 mm 2 mps 765 mmHg 74%
    03:00 +15°C° 0 mm 2 mps 764 mmHg 76%
    04:00 +15°C° 0 mm 2 mps 765 mmHg 75%
    05:00 +15°C° 0 mm 2 mps 765 mmHg 75%
    06:00 +15°C° 0 mm 2 mps 765 mmHg 74%
    07:00 +17°C° 0 mm 2 mps 765 mmHg 65%
    08:00 +20°C° 0 mm 2 mps 766 mmHg 56%
    09:00 +24°C° 0 mm 2 mps 766 mmHg 46%
    10:00 +25°C° 0 mm 2 mps 765 mmHg 42%
    11:00 +27°C° 0 mm 2 mps 765 mmHg 37%
    12:00 +28°C° 0 mm 3 mps 765 mmHg 32%
    13:00 +29°C° 0 mm 3 mps 765 mmHg 30%
    14:00 +29°C° 0 mm 3 mps 764 mmHg 29%
    15:00 +30°C° 0 mm 3 mps 764 mmHg 27%
    16:00 +29°C° 0 mm 3 mps 764 mmHg 31%
    17:00 +28°C° 0 mm 3 mps 764 mmHg 35%
    18:00 +27°C° 0 mm 2 mps 763 mmHg 38%
    19:00 +25°C° 0 mm 3 mps 764 mmHg 43%
    20:00 +22°C° 0 mm 3 mps 764 mmHg 47%
    21:00 +20°C° 0 mm 3 mps 765 mmHg 52%
    22:00 +19°C° 0 mm 3 mps 764 mmHg 55%
    23:00 +18°C° 0 mm 3 mps 764 mmHg 59%

    Tomorrow, 23 August, Friday

    Time Temperature Precipitation Wind Pressure Humidity
    00:00 +17°C° 0 mm 4 mps 764 mmHg 63%
    01:00 +17°C° 0 mm 4 mps 764 mmHg 63%
    02:00 +15°C° 0 mm 4 mps 764 mmHg 64%
    03:00 +15°C° 0 mm 4 mps 763 mmHg 65%
    04:00 +15°C° 0 mm 4 mps 763 mmHg 64%
    05:00 +15°C° 0 mm 4 mps 763 mmHg 64%
    06:00 +16°C° 0 mm 3 mps 763 mmHg 63%
    07:00 +18°C° 0 mm 4 mps 763 mmHg 58%
    08:00 +21°C° 0 mm 4 mps 763 mmHg 52%
    09:00 +23°C° 0 mm 5 mps 763 mmHg 47%
    10:00 +26°C° 0 mm 5 mps 763 mmHg 41%
    11:00 +28°C° 0 mm 5 mps 762 mmHg 36%
    12:00 +30°C° 0 mm 5 mps 762 mmHg 30%
    13:00 +32°C° 0 mm 4 mps 762 mmHg 28%
    14:00 +33°C° 0 mm 4 mps 761 mmHg 26%
    15:00 +33°C° 0 mm 3 mps 761 mmHg 24%
    16:00 +31°C° 0 mm 3 mps 761 mmHg 27%
    17:00 +30°C° 0 mm 3 mps 760 mmHg 30%
    18:00 +29°C° 0 mm 3 mps 760 mmHg 34%
    19:00 +27°C° 0 mm 3 mps 760 mmHg 38%
    20:00 +25°C° 0 mm 3 mps 760 mmHg 42%
    21:00 +21°C° 0 mm 3 mps 760 mmHg 46%
    22:00 +21°C° 0 mm 3 mps 760 mmHg 49%
    23:00 +20°C° 0 mm 3 mps 760 mmHg 52%

    Day after tomorrow, 24 August, Saturday

    Time Temperature Precipitation Wind Pressure Humidity
    00:00 +19°C° 0 mm 3 mps 760 mmHg 54%
    01:00 +19°C° 0 mm 3 mps 759 mmHg 55%
    02:00 +18°C° 0 mm 3 mps 759 mmHg 55%
    03:00 +18°C° 0 mm 3 mps 759 mmHg 56%
    04:00 +18°C° 0 mm 3 mps 759 mmHg 56%
    05:00 +18°C° 0 mm 3 mps 759 mmHg 57%
    06:00 +18°C° 0 mm 3 mps 759 mmHg 57%
    07:00 +21°C° 0 mm 3 mps 759 mmHg 51%
    08:00 +24°C° 0 mm 2 mps 759 mmHg 44%
    09:00 +27°C° 0 mm 2 mps 759 mmHg 38%
    10:00 +29°C° 0 mm 2 mps 759 mmHg 34%
    11:00 +31°C° 0 mm 2 mps 758 mmHg 29%
    12:00 +34°C° 0 mm 2 mps 758 mmHg 25%
    13:00 +35°C° 0 mm 3 mps 758 mmHg 25%
    14:00 +35°C° 0 mm 3 mps 758 mmHg 25%
    15:00 +35°C° 0 mm 4 mps 757 mmHg 25%
    16:00 +33°C° 0 mm 4 mps 757 mmHg 32%
    17:00 +30°C° 0 mm 4 mps 757 mmHg 40%
    18:00 +27°C° 0 mm 4 mps 757 mmHg 47%
    19:00 +25°C° 0 mm 3 mps 757 mmHg 54%
    20:00 +23°C° 0 mm 2 mps 757 mmHg 61%
    21:00 +21°C° 0 mm 1 mps 758 mmHg 69%
    22:00 +21°C° 0 mm 1 mps 758 mmHg 70%
    23:00 +20°C° 0 mm 1 mps 757 mmHg 72%

    25 August, Sunday

    Time Temperature Precipitation Wind Pressure Humidity
    00:00 +20°C° 0 mm 1 mps 757 mmHg 74%
    01:00 +19°C° 0 mm 1 mps 757 mmHg 76%
    02:00 +19°C° 0 mm 1 mps 757 mmHg 77%
    03:00 +19°C° 0 mm 1 mps 757 mmHg 79%
    04:00 +19°C° 0 mm 1 mps 757 mmHg 78%
    05:00 +19°C° 0 mm 1 mps 757 mmHg 78%
    06:00 +18°C° 0 mm 2 mps 758 mmHg 77%
    07:00 +20°C° 0 mm 2 mps 758 mmHg 71%
    08:00 +22°C° 0 mm 1 mps 758 mmHg 66%
    09:00 +23°C° 0 mm 1 mps 759 mmHg 60%
    10:00 +25°C° 0 mm 2 mps 759 mmHg 53%
    11:00 +27°C° 0 mm 2 mps 759 mmHg 47%
    12:00 +28°C° 0 mm 3 mps 759 mmHg 40%
    13:00 +29°C° 0 mm 3 mps 759 mmHg 39%
    14:00 +29°C° 0 mm 3 mps 759 mmHg 37%
    15:00 +30°C° 0 mm 2 mps 759 mmHg 36%
    16:00 +29°C° 0 mm 2 mps 759 mmHg 40%
    17:00 +28°C° 0 mm 3 mps 759 mmHg 44%
    18:00 +27°C° 0 mm 3 mps 759 mmHg 47%
    19:00 +25°C° 0 mm 3 mps 760 mmHg 55%
    20:00 +22°C° 0 mm 3 mps 760 mmHg 63%
    21:00 +20°C° 0 mm 4 mps 760 mmHg 72%
    22:00 +19°C° 0 mm 3 mps 760 mmHg 73%
    23:00 +19°C° 0 mm 3 mps 761 mmHg 75%

    26 August, Monday

    Time Temperature Precipitation Wind Pressure Humidity
    00:00 +18°C° 0 mm 3 mps 761 mmHg 77%
    01:00 +17°C° 0 mm 3 mps 760 mmHg 79%
    02:00 +17°C° 0 mm 4 mps 760 mmHg 82%
    03:00 +17°C° 0 mm 4 mps 760 mmHg 84%
    04:00 +17°C° 0 mm 4 mps 760 mmHg 84%
    05:00 +17°C° 0 mm 4 mps 760 mmHg 84%
    06:00 +17°C° 0 mm 3 mps 761 mmHg 84%
    07:00 +19°C° 0 mm 4 mps 761 mmHg 73%
    08:00 +22°C° 0 mm 4 mps 761 mmHg 61%
    09:00 +26°C° 0 mm 4 mps 761 mmHg 50%
    10:00 +28°C° 0 mm 5 mps 761 mmHg 44%
    11:00 +32°C° 0 mm 5 mps 760 mmHg 37%
    12:00 +34°C° 0 mm 5 mps 760 mmHg 31%
    13:00 +35°C° 0 mm 5 mps 760 mmHg 30%
    14:00 +35°C° 0 mm 5 mps 759 mmHg 28%
    15:00 +36°C° 0 mm 5 mps 759 mmHg 27%
    16:00 +35°C° 0 mm 5 mps 759 mmHg 30%
    17:00 +34°C° 0 mm 5 mps 759 mmHg 33%
    18:00 +33°C° 0 mm 5 mps 758 mmHg 36%
    19:00 +29°C° 0 mm 5 mps 759 mmHg 46%
    20:00 +26°C° 0 mm 5 mps 759 mmHg 57%
    21:00 +23°C° 0 mm 6 mps 759 mmHg 67%
    22:00 +22°C° 0 mm 5 mps 759 mmHg 69%
    23:00 +21°C° 0 mm 5 mps 759 mmHg 71%

    27 August, Tuesday

    Time Temperature Precipitation Wind Pressure Humidity
    00:00 +20°C° 0 mm 4 mps 759 mmHg 73%
    01:00 +20°C° 0 mm 4 mps 758 mmHg 73%
    02:00 +20°C° 0 mm 4 mps 758 mmHg 72%
    03:00 +19°C° 0 mm 4 mps 758 mmHg 72%
    04:00 +19°C° 0 mm 4 mps 758 mmHg 72%
    05:00 +19°C° 0 mm 4 mps 758 mmHg 72%
    06:00 +19°C° 0 mm 4 mps 758 mmHg 72%
    07:00 +22°C° 0 mm 4 mps 758 mmHg 64%
    08:00 +26°C° 0 mm 4 mps 758 mmHg 55%
    09:00 +28°C° 0 mm 4 mps 757 mmHg 47%
    10:00 +32°C° 0 mm 4 mps 757 mmHg 40%
    11:00 +34°C° 0 mm 4 mps 757 mmHg 34%
    12:00 +36°C° 0 mm 5 mps 757 mmHg 28%
    13:00 +36°C° 0 mm 4 mps 756 mmHg 27%
    14:00 +36°C° 0 mm 4 mps 756 mmHg 26%
    15:00 +37°C° 0 mm 4 mps 755 mmHg 25%
    16:00 +35°C° 0 mm 4 mps 755 mmHg 30%
    17:00 +33°C° 0 mm 4 mps 756 mmHg 34%
    18:00 +30°C° 0 mm 4 mps 756 mmHg 39%
    19:00 +28°C° 0 mm 4 mps 756 mmHg 49%
    20:00 +25°C° 0 mm 3 mps 756 mmHg 59%
    21:00 +23°C° 0 mm 2 mps 756 mmHg 70%
    22:00 +21°C° 0 mm 2 mps 756 mmHg 74%
    23:00 +20°C° 0 mm 2 mps 756 mmHg 79%
    Show more